Weather in Pogodayevo

Russia / Krasnoyarsk Krai     58°41′53″N   92°03′12″E
temp.,
°C
wind,
m/s
gust,
m/s
humid.,
%
clouds,
%
prec.,
mm/h
press.,
hPa
HPBL,
m
13 may, thu
thu1301:00+6ese23570 0.0 101754
04:00+4ese23635 0.0 101753
07:00+7se35525 0.0 1017216
10:00+13sse463632 0.0 1016859
13:00+16s452878 0.0 10151811
16:00+17s45285 0.0 10141860
19:00+16sse473594 0.0 1012777
22:00+10sse311505 0.0 1012307
14 may, fri
fri1401:00+7ese2671100 0.1 1012122
04:00+6sse258393 0.6 1011142
07:00+7w1494100 1.7 1010179
10:00+9nw5775100 1.9 1010990
13:00+5nw597379 2.8 10131260
16:00+9nnw6104590 0.0 10132130
19:00+8nw5114749 0.0 10152066
22:00+3wnw1167100 0.0 101610
15 may, sat
sat1501:00+2wsw246891 0.0 101587
04:00+4ssw2764100 0.0 1013251
07:00+5sw31179100 1.3 1010736
10:00+12w6136484 0.1 10081223
13:00+16wnw61349100 0.1 10072309
16:00+14nnw61148100 0.0 10091491
19:00+11nw3748100 0.0 1011453
22:00+7nnw2662100 0.0 1012120
16 may, sun
sun1601:00+3nne227517 0.0 101426
04:00+2n1177100 0.0 101511
07:00+4n2358100 0.0 1016315
10:00+8nnw123699 0.0 10161024
13:00+10nw3328100 0.0 10141421
16:00+11nw332675 0.0 10131546
19:00+11nw24325 0.0 10131272
22:00+6nnw2247100 0.0 101224
17 may, mon
mon1701:00+4nnw1151100 0.0 101210
04:00+5nne2255100 0.0 101036
07:00+4ene2383100 0.9 1009433
10:00+2e2699100 4.8 1006283
13:00+4ne2496100 8.3 1006466
16:00+4nne3592100 0.9 1006482
19:00+5nw3687100 0.9 1007314
22:00+2nw310945 0.0 1009239